QPF
0.01 0.02 0.02 0.01 0.01 0.01 0.01 0.01 0.01 0.01 0.00 0.00 0.00 0.00 0.00 0.00 0.00 0.00 0.01 0.01 0.02 0.02 0.01 0.01 0.00 0.00 0.00 0.00 0.00 0.00 0.00 0.00 0.00 0.01 0.03 0.06 0.10 0.14
0.02 0.02 0.03 0.02 0.03 0.02 0.02 0.02 0.01 0.02 0.01 0.00 0.00 0.00 0.00 0.00 0.00 0.01 0.01 0.01 0.02 0.01 0.01 0.01 0.00 0.00 0.00 0.00 0.00 0.00 0.00 0.00 0.00 0.00 0.01 0.03 0.07 0.13
0.02 0.03 0.03 0.04 0.04 0.03 0.03 0.02 0.01 0.01 0.02 0.01 0.00 0.00 0.01 0.01 0.02 0.03 0.03 0.03 0.03 0.03 0.03 0.02 0.01 0.01 0.00 0.00 0.00 0.00 0.00 0.01 0.01 0.01 0.01 0.01 0.03 0.08
0.03 0.03 0.03 0.03 0.03 0.02 0.02 0.01 0.01 0.01 0.02 0.02 0.01 0.01 0.02 0.03 0.03 0.03 0.02 0.02 0.02 0.02 0.02 0.01 0.01 0.01 0.00 0.00 0.00 0.00 0.00 0.00 0.01 0.01 0.01 0.01 0.02 0.05
0.02 0.03 0.02 0.02 0.02 0.01 0.01 0.01 0.01 0.01 0.01 0.02 0.03 0.03 0.03 0.02 0.03 0.03 0.02 0.03 0.02 0.01 0.01 0.01 0.01 0.01 0.01 0.01 0.01 0.00 0.00 0.00 0.00 0.01 0.01 0.01 0.02 0.02
0.01 0.01 0.01 0.01 0.01 0.02 0.02 0.01 0.02 0.02 0.03 0.04 0.04 0.03 0.03 0.02 0.04 0.04 0.03 0.04 0.05 0.03 0.03 0.03 0.03 0.02 0.01 0.01 0.01 0.01 0.00 0.00 0.00 0.00 0.00 0.01 0.01 0.02
0.01 0.01 0.01 0.01 0.01 0.02 0.01 0.02 0.03 0.04 0.04 0.05 0.05 0.04 0.03 0.03 0.04 0.05 0.05 0.03 0.03 0.03 0.04 0.04 0.05 0.04 0.04 0.03 0.02 0.01 0.01 0.01 0.00 0.00 0.00 0.00 0.00 0.01
0.01 0.01 0.01 0.01 0.01 0.01 0.02 0.03 0.04 0.05 0.05 0.05 0.05 0.04 0.03 0.03 0.05 0.05 0.04 0.04 0.03 0.03 0.04 0.04 0.04 0.05 0.06 0.06 0.04 0.02 0.01 0.01 0.01 0.00 0.00 0.00 0.00 0.00
0.02 0.02 0.02 0.01 0.02 0.04 0.05 0.04 0.04 0.03 0.04 0.05 0.05 0.03 0.03 0.04 0.06 0.06 0.07 0.07 0.06 0.05 0.06 0.05 0.05 0.05 0.04 0.04 0.03 0.02 0.01 0.01 0.01 0.00 0.00 0.00 0.00 0.00
0.02 0.03 0.04 0.04 0.04 0.04 0.03 0.02 0.02 0.02 0.03 0.04 0.04 0.04 0.04 0.06 0.09 0.09 0.09 0.09 0.07 0.05 0.07 0.06 0.04 0.05 0.04 0.03 0.03 0.01 0.01 0.00 0.00 0.00 0.00 0.00 0.00 0.00
0.01 0.02 0.03 0.03 0.03 0.02 0.02 0.03 0.02 0.02 0.02 0.03 0.04 0.06 0.08 0.10 0.10 0.10 0.11 0.11 0.09 0.07 0.07 0.07 0.04 0.04 0.03 0.02 0.02 0.02 0.01 0.00 0.00 0.00 0.00 0.00 0.00 0.00
0.01 0.01 0.02 0.02 0.02 0.02 0.02 0.03 0.03 0.02 0.03 0.04 0.06 0.09 0.10 0.12 0.12 0.11 0.11 0.11 0.11 0.11 0.08 0.08 0.06 0.05 0.04 0.02 0.02 0.01 0.01 0.01 0.01 0.00 0.00 0.00 0.00 0.00
0.01 0.01 0.02 0.03 0.02 0.02 0.03 0.03 0.03 0.03 0.04 0.06 0.07 0.08 0.08 0.08 0.08 0.08 0.09 0.10 0.11 0.12 0.10 0.09 0.08 0.07 0.06 0.05 0.03 0.03 0.04 0.05 0.04 0.02 0.01 0.01 0.01 0.00
0.02 0.02 0.03 0.04 0.03 0.04 0.03 0.04 0.05 0.06 0.05 0.06 0.07 0.07 0.06 0.06 0.06 0.06 0.06 0.07 0.09 0.10 0.09 0.08 0.08 0.07 0.07 0.06 0.07 0.08 0.09 0.13 0.14 0.11 0.07 0.05 0.04 0.02
0.03 0.04 0.04 0.04 0.06 0.06 0.05 0.05 0.06 0.06 0.06 0.06 0.05 0.05 0.05 0.06 0.06 0.06 0.07 0.07 0.08 0.08 0.08 0.07 0.06 0.07 0.08 0.09 0.12 0.13 0.16 0.26 0.29 0.23 0.16 0.12 0.07 0.04
0.03 0.05 0.07 0.07 0.07 0.07 0.06 0.06 0.05 0.05 0.05 0.05 0.04 0.04 0.05 0.05 0.05 0.06 0.07 0.07 0.08 0.07 0.07 0.07 0.06 0.07 0.08 0.11 0.14 0.17 0.21 0.33 0.38 0.30 0.22 0.17 0.11 0.05
0.04 0.04 0.05 0.06 0.06 0.06 0.07 0.06 0.06 0.05 0.05 0.05 0.04 0.04 0.04 0.05 0.05 0.05 0.05 0.06 0.07 0.07 0.07 0.08 0.08 0.07 0.07 0.09 0.14 0.18 0.24 0.30 0.34 0.27 0.19 0.18 0.15 0.08
0.04 0.04 0.05 0.05 0.06 0.07 0.08 0.07 0.06 0.06 0.05 0.05 0.05 0.05 0.05 0.06 0.06 0.05 0.04 0.05 0.06 0.07 0.07 0.07 0.07 0.06 0.04 0.06 0.13 0.15 0.17 0.21 0.22 0.18 0.12 0.11 0.15 0.11
0.03 0.04 0.05 0.05 0.06 0.07 0.07 0.07 0.06 0.06 0.05 0.05 0.06 0.06 0.06 0.06 0.05 0.05 0.04 0.04 0.05 0.05 0.05 0.04 0.04 0.03 0.02 0.06 0.14 0.16 0.13 0.12 0.09 0.08 0.06 0.05 0.10 0.12
0.03 0.05 0.05 0.06 0.06 0.06 0.06 0.07 0.06 0.06 0.06 0.06 0.06 0.07 0.06 0.05 0.04 0.04 0.04 0.04 0.04 0.03 0.03 0.04 0.05 0.04 0.02 0.05 0.13 0.20 0.17 0.10 0.05 0.04 0.04 0.04 0.08 0.10
0.03 0.04 0.05 0.05 0.05 0.05 0.05 0.06 0.06 0.06 0.07 0.07 0.07 0.07 0.07 0.06 0.04 0.04 0.03 0.03 0.03 0.03 0.02 0.03 0.06 0.05 0.03 0.02 0.07 0.14 0.16 0.12 0.05 0.03 0.02 0.02 0.03 0.03
0.03 0.03 0.03 0.03 0.04 0.04 0.05 0.06 0.06 0.06 0.07 0.07 0.07 0.07 0.07 0.06 0.05 0.04 0.03 0.03 0.03 0.02 0.02 0.03 0.04 0.05 0.04 0.03 0.04 0.07 0.08 0.07 0.04 0.03 0.02 0.02 0.01 0.02
0.03 0.03 0.03 0.03 0.03 0.03 0.04 0.04 0.05 0.06 0.06 0.06 0.07 0.06 0.06 0.05 0.04 0.03 0.02 0.02 0.02 0.01 0.01 0.02 0.02 0.03 0.03 0.02 0.02 0.03 0.03 0.03 0.02 0.01 0.03 0.03 0.02 0.01
MSLP
1018.28 1018.34 1018.41 1018.48 1018.52 1018.50 1018.40 1018.23 1017.97 1017.63 1017.22 1016.76 1016.26 1015.74 1015.21 1014.70 1014.22 1013.79 1013.43 1013.14 1012.94 1012.83 1012.79 1012.81 1012.87 1012.94 1013.02 1013.09 1013.14 1013.18 1013.19 1013.19 1013.19 1013.18 1013.16 1013.14 1013.12 1013.11
1017.94 1017.98 1018.04 1018.09 1018.12 1018.10 1018.02 1017.87 1017.64 1017.35 1017.00 1016.59 1016.13 1015.63 1015.11 1014.59 1014.07 1013.58 1013.13 1012.75 1012.44 1012.22 1012.08 1012.02 1012.02 1012.07 1012.16 1012.26 1012.36 1012.46 1012.55 1012.61 1012.64 1012.64 1012.60 1012.53 1012.45 1012.36
1017.61 1017.61 1017.62 1017.63 1017.63 1017.59 1017.51 1017.38 1017.20 1016.96 1016.67 1016.33 1015.93 1015.48 1014.99 1014.47 1013.92 1013.38 1012.86 1012.38 1011.97 1011.64 1011.39 1011.24 1011.18 1011.19 1011.26 1011.38 1011.52 1011.68 1011.82 1011.93 1012.00 1012.01 1011.97 1011.87 1011.73 1011.58
1017.36 1017.30 1017.24 1017.19 1017.13 1017.05 1016.95 1016.83 1016.68 1016.49 1016.26 1015.98 1015.65 1015.25 1014.79 1014.28 1013.72 1013.14 1012.56 1012.00 1011.49 1011.06 1010.72 1010.49 1010.35 1010.32 1010.37 1010.50 1010.66 1010.85 1011.03 1011.19 1011.29 1011.33 1011.29 1011.19 1011.03 1010.86
1017.24 1017.10 1016.95 1016.81 1016.68 1016.54 1016.40 1016.26 1016.12 1015.95 1015.76 1015.53 1015.24 1014.89 1014.46 1013.96 1013.40 1012.79 1012.17 1011.55 1010.98 1010.48 1010.07 1009.77 1009.58 1009.51 1009.54 1009.66 1009.83 1010.04 1010.25 1010.44 1010.57 1010.64 1010.63 1010.55 1010.42 1010.27
1017.24 1017.00 1016.75 1016.51 1016.28 1016.06 1015.86 1015.68 1015.51 1015.34 1015.16 1014.95 1014.68 1014.35 1013.93 1013.44 1012.88 1012.27 1011.63 1011.00 1010.40 1009.87 1009.43 1009.09 1008.88 1008.78 1008.79 1008.90 1009.07 1009.28 1009.51 1009.72 1009.88 1009.99 1010.03 1010.01 1009.94 1009.85
1017.30 1016.95 1016.60 1016.25 1015.91 1015.60 1015.32 1015.07 1014.86 1014.65 1014.45 1014.22 1013.95 1013.61 1013.20 1012.72 1012.17 1011.57 1010.95 1010.33 1009.75 1009.23 1008.80 1008.47 1008.26 1008.15 1008.15 1008.25 1008.41 1008.61 1008.84 1009.06 1009.26 1009.41 1009.52 1009.58 1009.60 1009.61
1017.32 1016.88 1016.42 1015.96 1015.52 1015.12 1014.75 1014.43 1014.15 1013.89 1013.64 1013.37 1013.07 1012.72 1012.31 1011.83 1011.31 1010.74 1010.16 1009.59 1009.06 1008.59 1008.21 1007.92 1007.73 1007.64 1007.63 1007.71 1007.85 1008.03 1008.24 1008.47 1008.69 1008.89 1009.07 1009.23 1009.37 1009.51
1017.24 1016.71 1016.16 1015.61 1015.09 1014.60 1014.16 1013.76 1013.41 1013.09 1012.79 1012.47 1012.14 1011.76 1011.34 1010.88 1010.38 1009.86 1009.34 1008.85 1008.40 1008.01 1007.70 1007.47 1007.31 1007.24 1007.23 1007.28 1007.38 1007.53 1007.71 1007.91 1008.14 1008.38 1008.63 1008.89 1009.15 1009.43
1017.00 1016.41 1015.79 1015.19 1014.60 1014.06 1013.56 1013.11 1012.71 1012.34 1011.99 1011.63 1011.26 1010.87 1010.45 1010.00 1009.53 1009.07 1008.62 1008.21 1007.85 1007.55 1007.31 1007.13 1007.01 1006.94 1006.91 1006.92 1006.97 1007.05 1007.18 1007.35 1007.56 1007.82 1008.12 1008.47 1008.85 1009.26
1016.64 1016.00 1015.35 1014.71 1014.10 1013.53 1013.01 1012.54 1012.11 1011.72 1011.34 1010.96 1010.58 1010.18 1009.76 1009.33 1008.90 1008.49 1008.11 1007.77 1007.49 1007.26 1007.08 1006.94 1006.83 1006.74 1006.67 1006.61 1006.58 1006.58 1006.62 1006.72 1006.89 1007.15 1007.48 1007.89 1008.36 1008.89
1016.21 1015.55 1014.90 1014.26 1013.66 1013.10 1012.59 1012.12 1011.70 1011.30 1010.92 1010.55 1010.17 1009.78 1009.37 1008.97 1008.58 1008.22 1007.89 1007.60 1007.37 1007.18 1007.03 1006.89 1006.76 1006.63 1006.49 1006.34 1006.20 1006.09 1006.03 1006.04 1006.15 1006.36 1006.69 1007.13 1007.67 1008.28
1015.81 1015.16 1014.52 1013.91 1013.33 1012.81 1012.33 1011.90 1011.50 1011.14 1010.78 1010.43 1010.07 1009.70 1009.32 1008.95 1008.59 1008.26 1007.97 1007.71 1007.50 1007.32 1007.16 1006.99 1006.82 1006.62 1006.38 1006.13 1005.87 1005.64 1005.45 1005.36 1005.38 1005.53 1005.82 1006.26 1006.83 1007.48
1015.55 1014.91 1014.30 1013.72 1013.18 1012.70 1012.26 1011.87 1011.52 1011.19 1010.88 1010.56 1010.23 1009.90 1009.56 1009.22 1008.88 1008.58 1008.30 1008.06 1007.84 1007.65 1007.46 1007.25 1007.00 1006.72 1006.39 1006.03 1005.65 1005.30 1005.00 1004.79 1004.71 1004.79 1005.02 1005.43 1005.98 1006.65
1015.48 1014.86 1014.26 1013.71 1013.21 1012.76 1012.37 1012.02 1011.70 1011.42 1011.14 1010.86 1010.57 1010.27 1009.97 1009.66 1009.35 1009.07 1008.80 1008.56 1008.34 1008.12 1007.89 1007.63 1007.34 1006.98 1006.57 1006.12 1005.65 1005.20 1004.80 1004.50 1004.33 1004.32 1004.49 1004.84 1005.36 1006.01
1015.61 1015.00 1014.42 1013.88 1013.40 1012.97 1012.59 1012.26 1011.98 1011.71 1011.46 1011.22 1010.96 1010.70 1010.42 1010.14 1009.87 1009.61 1009.36 1009.12 1008.90 1008.68 1008.43 1008.15 1007.83 1007.44 1006.99 1006.49 1005.97 1005.47 1005.01 1004.64 1004.41 1004.34 1004.44 1004.72 1005.18 1005.78
1015.92 1015.31 1014.74 1014.20 1013.71 1013.27 1012.89 1012.56 1012.27 1012.01 1011.77 1011.53 1011.30 1011.06 1010.81 1010.57 1010.32 1010.09 1009.87 1009.67 1009.47 1009.27 1009.05 1008.79 1008.48 1008.11 1007.68 1007.21 1006.70 1006.19 1005.73 1005.35 1005.08 1004.97 1005.02 1005.24 1005.63 1006.17
1016.36 1015.75 1015.16 1014.61 1014.10 1013.63 1013.22 1012.86 1012.54 1012.26 1012.00 1011.76 1011.53 1011.30 1011.07 1010.86 1010.65 1010.47 1010.30 1010.15 1010.01 1009.87 1009.72 1009.53 1009.30 1009.01 1008.66 1008.26 1007.83 1007.39 1006.99 1006.64 1006.39 1006.27 1006.29 1006.47 1006.79 1007.26
1016.87 1016.26 1015.67 1015.09 1014.55 1014.04 1013.59 1013.18 1012.82 1012.49 1012.19 1011.92 1011.67 1011.44 1011.22 1011.03 1010.86 1010.72 1010.62 1010.55 1010.49 1010.45 1010.41 1010.34 1010.23 1010.07 1009.85 1009.59 1009.29 1008.97 1008.66 1008.40 1008.21 1008.11 1008.14 1008.29 1008.57 1008.96
1017.41 1016.81 1016.22 1015.63 1015.06 1014.52 1014.01 1013.55 1013.13 1012.75 1012.39 1012.08 1011.79 1011.54 1011.31 1011.13 1011.00 1010.91 1010.87 1010.88 1010.93 1011.00 1011.08 1011.15 1011.19 1011.19 1011.14 1011.04 1010.90 1010.73 1010.57 1010.42 1010.32 1010.29 1010.35 1010.50 1010.75 1011.08
1017.96 1017.40 1016.81 1016.23 1015.64 1015.08 1014.53 1014.02 1013.54 1013.10 1012.68 1012.31 1011.97 1011.68 1011.44 1011.26 1011.13 1011.08 1011.10 1011.18 1011.31 1011.49 1011.70 1011.90 1012.09 1012.25 1012.37 1012.44 1012.47 1012.46 1012.45 1012.43 1012.45 1012.50 1012.61 1012.78 1013.03 1013.33
1018.52 1018.00 1017.45 1016.88 1016.31 1015.73 1015.17 1014.62 1014.09 1013.59 1013.12 1012.68 1012.29 1011.95 1011.67 1011.46 1011.34 1011.29 1011.34 1011.46 1011.67 1011.92 1012.22 1012.53 1012.85 1013.14 1013.39 1013.61 1013.79 1013.93 1014.05 1014.17 1014.30 1014.44 1014.62 1014.84 1015.10 1015.39
1019.09 1018.62 1018.12 1017.59 1017.03 1016.47 1015.90 1015.34 1014.78 1014.23 1013.71 1013.21 1012.76 1012.37 1012.04 1011.79 1011.63 1011.58 1011.62 1011.76 1011.98 1012.28 1012.63 1013.00 1013.39 1013.76 1014.11 1014.43 1014.71 1014.97 1015.20 1015.43 1015.65 1015.88 1016.14 1016.41 1016.70 1017.00
Thickness
5527 5522 5515 5509 5502 5496 5489 5483 5479 5480 5483 5479 5477 5474 5473 5473 5474 5475 5476 5478 5482 5484 5486 5489 5492 5494 5498 5502 5507 5512 5517 5523 5528 5535 5541 5547 5554 5561
5516 5510 5503 5496 5489 5481 5474 5468 5462 5460 5464 5463 5459 5457 5455 5454 5455 5456 5458 5460 5464 5467 5470 5474 5477 5481 5484 5488 5492 5497 5503 5509 5516 5523 5530 5537 5544 5551
5503 5497 5490 5483 5475 5468 5460 5453 5447 5441 5442 5446 5441 5439 5438 5437 5438 5439 5442 5445 5450 5453 5457 5460 5464 5467 5470 5474 5478 5483 5489 5496 5503 5511 5518 5526 5534 5542
5489 5482 5475 5468 5461 5453 5445 5438 5432 5425 5422 5425 5425 5424 5424 5424 5427 5430 5433 5437 5441 5445 5447 5450 5453 5456 5458 5462 5465 5470 5476 5482 5490 5498 5507 5515 5523 5531
5473 5466 5459 5452 5445 5438 5430 5424 5419 5415 5411 5411 5413 5413 5414 5416 5419 5423 5427 5430 5433 5437 5440 5443 5445 5447 5449 5452 5455 5460 5465 5471 5478 5486 5494 5503 5511 5520
5456 5450 5444 5437 5431 5424 5418 5413 5409 5406 5403 5402 5404 5405 5407 5410 5413 5417 5421 5423 5426 5429 5431 5434 5436 5439 5442 5445 5449 5453 5456 5461 5467 5475 5483 5491 5499 5508
5443 5437 5431 5426 5420 5414 5410 5406 5402 5399 5397 5397 5399 5401 5404 5406 5409 5412 5414 5417 5420 5422 5425 5428 5430 5433 5437 5440 5443 5447 5450 5455 5460 5466 5472 5480 5488 5497
5431 5426 5421 5417 5413 5409 5405 5401 5398 5395 5394 5395 5397 5400 5403 5405 5407 5409 5410 5412 5417 5420 5421 5425 5426 5429 5432 5436 5440 5443 5446 5450 5454 5459 5465 5472 5479 5487
5420 5416 5413 5410 5405 5402 5400 5398 5396 5395 5395 5396 5399 5402 5404 5406 5407 5409 5410 5412 5415 5418 5418 5423 5426 5428 5432 5435 5438 5441 5444 5447 5451 5455 5460 5466 5473 5480
5412 5409 5406 5403 5401 5397 5396 5396 5397 5398 5400 5401 5403 5405 5407 5408 5408 5410 5413 5416 5419 5421 5420 5423 5427 5430 5433 5436 5438 5440 5443 5446 5449 5454 5459 5464 5470 5476
5406 5404 5401 5399 5397 5395 5395 5397 5400 5403 5405 5407 5408 5408 5409 5410 5412 5415 5418 5421 5424 5425 5424 5424 5427 5429 5433 5436 5438 5440 5443 5446 5450 5455 5459 5464 5469 5474
5401 5400 5399 5397 5396 5396 5398 5401 5404 5407 5408 5410 5411 5412 5413 5414 5416 5418 5420 5422 5424 5425 5423 5422 5425 5426 5430 5435 5436 5438 5442 5447 5452 5458 5463 5467 5470 5472
5398 5398 5398 5397 5398 5399 5401 5404 5406 5408 5410 5412 5413 5414 5415 5416 5417 5417 5418 5419 5420 5420 5419 5419 5422 5424 5425 5430 5433 5437 5441 5447 5455 5463 5468 5472 5473 5475
5395 5397 5398 5398 5400 5402 5404 5406 5409 5411 5413 5415 5416 5416 5416 5416 5416 5415 5415 5414 5414 5415 5415 5417 5419 5420 5423 5426 5428 5434 5441 5448 5457 5466 5473 5475 5474 5475
5393 5396 5398 5401 5403 5406 5407 5409 5412 5414 5416 5417 5416 5416 5416 5415 5416 5415 5414 5413 5413 5413 5414 5416 5417 5418 5421 5422 5425 5430 5438 5447 5457 5466 5471 5473 5474 5473
5394 5397 5401 5403 5406 5408 5410 5413 5414 5415 5416 5417 5416 5416 5416 5416 5416 5415 5414 5413 5413 5412 5412 5414 5415 5417 5419 5419 5423 5427 5435 5443 5452 5459 5464 5466 5467 5469
5393 5398 5402 5405 5408 5411 5412 5415 5416 5417 5418 5417 5418 5418 5418 5418 5417 5415 5414 5414 5414 5414 5414 5414 5414 5415 5415 5417 5420 5423 5429 5436 5442 5448 5454 5456 5458 5462
5394 5398 5401 5405 5408 5411 5413 5415 5417 5417 5418 5419 5419 5420 5420 5420 5419 5417 5416 5415 5414 5414 5415 5416 5417 5418 5419 5417 5414 5418 5423 5427 5432 5438 5444 5448 5449 5451
5393 5396 5400 5404 5407 5411 5413 5415 5417 5418 5419 5421 5422 5423 5423 5422 5421 5419 5417 5415 5414 5414 5414 5414 5416 5418 5419 5416 5411 5412 5417 5421 5426 5429 5433 5437 5440 5441
5390 5394 5398 5402 5406 5409 5412 5415 5416 5418 5420 5422 5424 5426 5426 5425 5423 5421 5418 5416 5415 5414 5413 5412 5412 5413 5415 5413 5411 5408 5411 5416 5420 5422 5424 5427 5430 5432
5388 5392 5397 5401 5404 5408 5411 5414 5416 5418 5421 5424 5426 5428 5429 5428 5427 5424 5421 5417 5417 5416 5414 5412 5410 5412 5414 5416 5414 5409 5407 5410 5415 5419 5422 5426 5428 5429
5386 5391 5395 5399 5403 5406 5410 5413 5416 5419 5422 5425 5429 5432 5433 5433 5432 5430 5428 5425 5422 5419 5417 5415 5415 5415 5416 5416 5413 5410 5408 5410 5412 5416 5420 5425 5428 5426
5385 5389 5394 5398 5401 5405 5408 5411 5415 5418 5422 5426 5430 5434 5437 5438 5437 5436 5434 5433 5430 5428 5425 5422 5420 5419 5417 5416 5413 5410 5409 5410 5412 5414 5413 5415 5418 5420